Tiempo atmosférico en la estación meteorológica de San Bartolome Tirajana, Lomo Pedro Alfonso, Las Palmas (806 m.)



Fecha
DESCASC
Temp. máxima en grados centígrados (hora)
DESCASC
Temp. mínima en grados centígrados (hora)
DESCASC
Temp. media en grados centígrados
DESCASC
Racha de viento máxima en m/sg (hora)
DESCASC
Velocidad máxima media en intervalos de 10 minutos(hora)
DESCASC
Precipitaciones diarias en mm
DESCASC
Precipitaciones de 00:00 a 06:00 en mm
DESCASC
Precipitaciones de 06:00 a 12:00 en mm
DESCASC
Precipitaciones de 12:00 a 18:00 en mm
DESCASC
Precipitaciones de 18:00 a 24:00 en mm
DESCASC
11-12-2019 21.2 (13:50) 13.2 (21:10) 17.2 6.39 (12:30) 3.89 (05:20) 0 0 0 0 0
10-12-2019 20.8 (13:50) 12.3 (01:50) 16.5 5.28 (15:30) 3.89 (07:50) 0 0 0 0 0
09-12-2019 20.6 (15:10) 10.7 (03:50) 15.7 8.89 (08:40) 5.28 (08:00) 0 0 0 0 0
08-12-2019 19.2 (14:50) 11 (00:00) 15.1 7.78 (16:30) 3.89 (16:30) 0 0 0 0 0
07-12-2019 18.2 (16:20) 11.2 (00:00) 14.7 8.61 (15:00) 4.44 (05:00) 0 0 0 0 0
06-12-2019 17.5 (13:50) 10.6 (00:00) 14.1 12.5 (08:10) 7.22 (08:10) 1 1 0 0 0
05-12-2019 14.8 (15:50) 10.5 (00:00) 12.7 23.89 (08:20) 11.67 (07:40) 7.4 2.6 0 2.2 2.6
04-12-2019 17.8 (16:10) 11.1 (00:00) 14.4 13.33 (23:50) 9.17 (23:59) 0 0 0 0 0
03-12-2019 18.5 (13:30) 12.1 (00:00) 15.3 12.22 (11:20) 6.94 (23:20) 0 0 0 0 0
02-12-2019 18.7 (15:10) 12.1 (00:00) 15.4 11.94 (17:20) 6.67 (21:40) 0 0 0 0 0
01-12-2019 23.7 (14:40) 13.7 (00:00) 18.7 6.11 (00:10) 4.72 (00:10) 0 0 0 0 0
30-11-2019 26.1 (14:40) 20.5 (00:00) 23.3 12.22 (02:30) 7.22 (02:30) 0 0 0 0 0
29-11-2019 25.9 (15:10) 19.4 (00:00) 22.6 12.5 (03:10) 7.78 (03:00) 0 0 0 0 0
28-11-2019 22.5 (15:00) 14.9 (00:00) 18.7 8.06 (23:40) 5 (23:30) 0 0 0 0 0
27-11-2019 22.5 (16:10) 14.1 (00:00) 18.3 6.39 (12:20) 3.61 (12:40) 0 0 0 0 0
26-11-2019 20.2 (14:10) 12.5 (00:00) 16.4 5.83 (15:50) 3.61 (22:30) 0 0 0 0 0
25-11-2019 19.4 (13:50) 11.1 (00:00) 15.3 6.67 (14:10) 3.33 (14:10) 0.2 0 0.2 0 0
24-11-2019 16.3 (12:30) 12.7 (00:00) 14.5 5.83 (13:10) 3.61 (02:50) 0 0 0 0 0
23-11-2019 19.1 (16:50) 13.8 (00:00) 16.5 6.11 (05:20) 3.89 (23:00) 0 0 0 0 0
22-11-2019 19.7 (13:20) 14 (00:00) 16.9 7.78 (13:20) 3.33 (13:50) 0 0 0 0 0
21-11-2019 21.2 (14:10) 13.3 (00:00) 17.3 8.89 (13:30) 4.72 (14:00) 0 0 0 0 0
20-11-2019 21.2 (15:10) 11.9 (00:00) 16.6 8.06 (15:10) 4.17 (15:10) 0 0 0 0 0
19-11-2019 20.9 (14:20) 11.2 (00:00) 16 7.22 (13:40) 3.61 (13:20) 0 0 0 0 0
18-11-2019 20.7 (14:50) 11.5 (00:00) 16.1 8.89 (14:40) 3.89 (15:20) 0 0 0 0 0
17-11-2019 18 (13:50) 11.4 (00:00) 14.7 6.67 (13:50) 3.61 (13:50) 0 0 0 0 0
16-11-2019 19.4 (13:50) 10.9 (00:00) 15.1 9.17 (14:10) 3.89 (13:10) 0 0 0 0 0
15-11-2019 17.6 (16:10) 12.2 (00:00) 14.9 14.72 (16:30) 8.61 (16:30) 0.6 0 0.6 0 0
14-11-2019 20.1 (13:40) 12.7 (00:00) 16.4 6.94 (15:40) 3.33 (01:20) 0 0 0 0 0
13-11-2019 22 (14:10) 13.3 (00:00) 17.7 6.39 (16:00) 3.61 (14:00) 0 0 0 0 0
12-11-2019 21.9 (14:00) 13.2 (00:00) 17.5 5.56 (14:50) 3.33 (15:20) 0 0 0 0 0

Gráficas

Temp. máximas Temp. mínimas Temp. medias Precipitaciones Rachas de viento máximas Velocidades máximas media en intervalos de 10 minutos

Datos horarios

Fecha y hora oficial Temperatura (ºC) Velocidad del viento (km/h) Dirección del viento Racha (km/h) Dirección de racha Precipitación (mm) Presión (hPa) Tendencia (hPa) Humedad (%)
2019-12-11 23:00:00 15 2 Nordeste 6 Nordeste 0 -- -- 49
2019-12-11 22:00:00 13.5 2 Este 9 Este 0 -- -- 75
2019-12-11 21:00:00 13.3 4 Nordeste 6 Nordeste 0 -- -- 89
2019-12-11 20:00:00 14.7 0 Calma 4 Este 0 -- -- 83
2019-12-11 19:00:00 15.1 0 Calma 8 Noroeste 0 -- -- 83
2019-12-11 18:00:00 17.3 4 Oeste 15 Sudoeste 0 -- -- 72
2019-12-11 17:00:00 19.2 10 Oeste 19 Oeste 0 -- -- 66
2019-12-11 16:00:00 20.1 9 Oeste 20 Oeste 0 -- -- 61
2019-12-11 15:00:00 20.8 12 Oeste 19 Oeste 0 -- -- 56
2019-12-11 14:00:00 20.7 10 Sudoeste 18 Oeste 0 -- -- 57
2019-12-11 13:00:00 20.6 7 Oeste 23 Sur 0 -- -- 58
2019-12-11 12:00:00 19.7 7 Sudoeste 19 Sudoeste 0 -- -- 53
2019-12-11 11:00:00 18.2 5 Sudoeste 12 Sudoeste 0 -- -- 52
2019-12-11 10:00:00 16.9 3 Sudeste 19 Nordeste 0 -- -- 43
2019-12-11 09:00:00 16.4 4 Nordeste 20 Nordeste 0 -- -- 38
2019-12-11 08:00:00 15.7 13 Nordeste 18 Nordeste 0 -- -- 37
2019-12-11 07:00:00 16 9 Nordeste 18 Nordeste 0 -- -- 30
2019-12-11 06:00:00 15.4 9 Nordeste 21 Nordeste 0 -- -- 23
2019-12-11 05:00:00 14.9 12 Nordeste 19 Norte 0 -- -- 35
2019-12-11 04:00:00 13.8 0 Calma 9 Este 0 -- -- 63
2019-12-11 03:00:00 14.1 3 Nordeste 6 Nordeste 0 -- -- 65
2019-12-11 02:00:00 14.2 3 Nordeste 8 Este 0 -- -- 66
2019-12-11 01:00:00 14.1 3 Nordeste 10 Nordeste 0 -- -- 65
2019-12-11 00:00:00 13.5 3 Sudeste 7 Este 0 -- -- 75
2019-12-10 23:00:00 14 0 Calma 7 Nordeste 0 -- -- 75
2019-12-10 22:00:00 14 0 Calma 4 Noroeste 0 -- -- 79
2019-12-10 21:00:00 14 0 Calma 5 Sudoeste 0 -- -- 80
2019-12-10 20:00:00 14.8 0 Calma 5 Nordeste 0 -- -- 77
2019-12-10 19:00:00 15.1 3 Norte 5 Norte 0 -- -- 74
2019-12-10 18:00:00 17.4 3 Oeste 15 Sur 0 -- -- 67
2019-12-10 17:00:00 19.1 9 Oeste 17 Oeste 0 -- -- 61
2019-12-10 16:00:00 19.8 9 Oeste 19 Oeste 0 -- -- 58
2019-12-10 15:00:00 20.4 11 Oeste 17 Oeste 0 -- -- 57
2019-12-10 14:00:00 20.7 9 Oeste 18 Sudoeste 0 -- -- 54
2019-12-10 13:00:00 19.5 8 Oeste 14 Oeste 0 -- -- 55
2019-12-10 12:00:00 18.3 3 Oeste 10 Sur 0 -- -- 48
2019-12-10 11:00:00 17 3 Sudoeste 8 Sudoeste 0 -- -- 38
2019-12-10 10:00:00 14.6 0 Calma 8 Sudeste 0 -- -- 32
2019-12-10 09:00:00 15 5 Este 17 Este 0 -- -- 24
2019-12-10 08:00:00 14.8 13 Nordeste 18 Este 0 -- -- 23
2019-12-10 07:00:00 13.2 8 Nordeste 13 Este 0 -- -- 29
2019-12-10 06:00:00 13.1 3 Este 7 Sudeste 0 -- -- 33
2019-12-10 05:00:00 12.9 0 Calma 4 Nordeste 0 -- -- 54
2019-12-10 04:00:00 13 2 Nordeste 7 Nordeste 0 -- -- 57
2019-12-10 03:00:00 12.7 3 Nordeste 4 Nordeste 0 -- -- 61
2019-12-10 02:00:00 12.3 0 Calma 6 Noroeste 0 -- -- 65
2019-12-10 01:00:00 12.6 2 Noroeste 4 Oeste 0 -- -- 67
2019-12-10 00:00:00 12.6 2 Nordeste 4 Nordeste 0 -- -- 73
2019-12-09 23:00:00 12.8 0 Calma 4 Nordeste 0 -- -- 75
2019-12-09 22:00:00 13.1 0 Calma 6 Norte 0 -- -- 74
2019-12-09 21:00:00 13.4 0 Calma 5 Sur 0 -- -- 73
2019-12-09 20:00:00 14 3 Sur 6 Sur 0 -- -- 68
2019-12-09 19:00:00 14.6 5 Sur 12 Oeste 0 -- -- 68
2019-12-09 18:00:00 17.1 9 Oeste 22 Oeste 0 -- -- 58
2019-12-09 17:00:00 19.5 13 Oeste 25 Oeste 0 -- -- 52
2019-12-09 16:00:00 20.4 13 Oeste 26 Sudoeste 0 -- -- 49
2019-12-09 15:00:00 20.4 11 Oeste 28 Sur 0 -- -- 49
2019-12-09 14:00:00 18.7 9 Sudeste 26 Nordeste 0 -- -- 39
2019-12-09 13:00:00 18.7 10 Nordeste 28 Este 0 -- -- 42
2019-12-09 12:00:00 17.5 10 Este 26 Este 0 -- -- 48
2019-12-09 11:00:00 16.7 8 Este 21 Norte 0 -- -- 51
2019-12-09 10:00:00 14.1 10 Norte 26 Nordeste 0 -- -- 52
2019-12-09 09:00:00 13.2 14 Nordeste 32 Nordeste 0 -- -- 58
2019-12-09 08:00:00 12.9 19 Norte 30 Nordeste 0 -- -- 57
2019-12-09 07:00:00 12.6 17 Norte 28 Norte 0 -- -- 56
2019-12-09 06:00:00 12.5 15 Norte 28 Nordeste 0 -- -- 54
2019-12-09 05:00:00 11.4 8 Norte 19 Nordeste 0 -- -- 61
2019-12-09 04:00:00 10.9 6 Nordeste 10 Nordeste 0 -- -- 75
2019-12-09 03:00:00 11.1 0 Calma 5 Nordeste 0 -- -- 86
2019-12-09 02:00:00 11.1 2 Nordeste 8 Nordeste 0 -- -- 87
2019-12-09 01:00:00 11.4 0 Calma 5 Nordeste 0 -- -- 88
2019-12-09 00:00:00 11.6 0 Calma 7 Oeste 0 -- -- 87
2019-12-08 23:00:00 11.8 0 Calma 5 Nordeste 0 -- -- 87
2019-12-08 22:00:00 12 0 Calma 5 Sur 0 -- -- 86
2019-12-08 21:00:00 12 2 Noroeste 7 Oeste 0 -- -- 85
2019-12-08 20:00:00 12.6 0 Calma 9 Sudoeste 0 -- -- 81
2019-12-08 19:00:00 13.5 5 Oeste 14 Oeste 0 -- -- 77
2019-12-08 18:00:00 15.8 9 Oeste 22 Oeste 0 -- -- 69
2019-12-08 17:00:00 17.4 14 Oeste 28 Oeste 0 -- -- 60
2019-12-08 16:00:00 18.9 11 Oeste 24 Oeste 0 -- -- 56
2019-12-08 15:00:00 18.8 12 Oeste 25 Oeste 0 -- -- 55
2019-12-08 14:00:00 18.2 14 Oeste 25 Oeste 0 -- -- 60
2019-12-08 13:00:00 17.3 10 Oeste 21 Noroeste 0 -- -- 61
2019-12-08 12:00:00 16.7 6 Oeste 15 Oeste 0 -- -- 64
2019-12-08 11:00:00 15 4 Sudoeste 8 Oeste 0 -- -- 67
2019-12-08 10:00:00 12.3 0 Calma 7 Nordeste 0 -- -- 72
2019-12-08 09:00:00 11.8 2 Sur 8 Sur 0 -- -- 77
2019-12-08 08:00:00 11.2 5 Sur 6 Sur 0 -- -- 78
2019-12-08 07:00:00 11.1 3 Sudoeste 8 Sur 0 -- -- 86
2019-12-08 06:00:00 11.3 2 Este 11 Sur 0 -- -- 89
2019-12-08 05:00:00 11.5 7 Sur 10 Este 0 -- -- 81
2019-12-08 04:00:00 12 5 Este 9 Nordeste 0 -- -- 80
2019-12-08 03:00:00 12.3 3 Sudoeste 6 Nordeste 0 -- -- 79
2019-12-08 02:00:00 12.3 3 Este 9 Nordeste 0 -- -- 79
2019-12-08 01:00:00 12.6 2 Nordeste 11 Nordeste 0 -- -- 79
2019-12-08 00:00:00 12.6 4 Nordeste 9 Nordeste 0 -- -- 80
2019-12-07 23:00:00 12.5 0 Calma 9 Nordeste 0 -- -- 83
2019-12-07 22:00:00 12.7 5 Sur 13 Sur 0 -- -- 84
2019-12-07 21:00:00 12.8 6 Sudeste 10 Este 0 -- -- 81
2019-12-07 20:00:00 13.1 0 Calma 9 Sur 0 -- -- 85
2019-12-07 19:00:00 13.6 4 Sur 15 Sudoeste 0 -- -- 83
2019-12-07 18:00:00 16.2 6 Oeste 20 Oeste 0 -- -- 63
2019-12-07 17:00:00 17 6 Norte 24 Oeste 0 -- -- 57
2019-12-07 16:00:00 17.4 7 Norte 29 Oeste 0 -- -- 52
2019-12-07 15:00:00 16.5 13 Norte 31 Nordeste 0 -- -- 64
2019-12-07 14:00:00 16.3 6 Oeste 24 Norte 0 -- -- 70
2019-12-07 13:00:00 15.8 5 Noroeste 20 Nordeste 0 -- -- 64
2019-12-07 12:00:00 15.6 14 Oeste 26 Oeste 0 -- -- 65
2019-12-07 11:00:00 15 5 Oeste 10 Sudoeste 0 -- -- 69
2019-12-07 10:00:00 12.6 0 Calma 10 Sudeste 0 -- -- 75
2019-12-07 09:00:00 12.3 7 Sudeste 14 Nordeste 0 -- -- 75
2019-12-07 08:00:00 11.4 3 Sur 8 Este 0 -- -- 77
2019-12-07 07:00:00 11.6 4 Sudoeste 9 Nordeste 0 -- -- 71
2019-12-07 06:00:00 11.6 4 Sudeste 18 Nordeste 0 -- -- 74
2019-12-07 05:00:00 11.4 16 Nordeste 24 Nordeste 0 -- -- 76
2019-12-07 04:00:00 11.6 5 Sudeste 12 Sudeste 0 -- -- 90
2019-12-07 03:00:00 11.4 7 Este 15 Nordeste 0 -- -- 90
2019-12-07 02:00:00 11.7 10 Sur 17 Este 0 -- -- 86
2019-12-07 01:00:00 11.9 8 Noroeste 17 Sudoeste 0 -- -- 79
2019-12-07 00:00:00 12.1 6 Sur 13 Sudeste 0 -- -- 83
2019-12-06 23:00:00 13 12 Nordeste 45 Nordeste 0 -- -- 67
2019-12-06 22:00:00 13 22 Norte 34 Norte 0 -- -- 67
2019-12-06 21:00:00 12.6 15 Norte 32 Norte 0 -- -- 74
2019-12-06 20:00:00 12.6 3 Noroeste 22 Nordeste 0 -- -- 71
2019-12-06 19:00:00 13.3 5 Noroeste 33 Nordeste 0 -- -- 64
2019-12-06 18:00:00 14.7 8 Norte 26 Oeste 0 -- -- 61
2019-12-06 17:00:00 16.3 8 Norte 27 Noroeste 0 -- -- 63
2019-12-06 16:00:00 16.8 14 Oeste 30 Noroeste 0 -- -- 63
2019-12-06 15:00:00 17.5 13 Noroeste 27 Sudoeste 0 -- -- 58
2019-12-06 14:00:00 17.5 13 Oeste 28 Oeste 0 -- -- 60
2019-12-06 13:00:00 16 9 Noroeste 31 Norte 0 -- -- 66
2019-12-06 12:00:00 14.6 8 Sur 22 Noroeste 0 -- -- 76
2019-12-06 11:00:00 14.7 6 Sudoeste 30 Norte 0 -- -- 70
2019-12-06 10:00:00 13 2 Nordeste 34 Norte 0 -- -- 70
2019-12-06 09:00:00 12.3 16 Nordeste 45 Nordeste 0 -- -- 67
2019-12-06 08:00:00 11.7 23 Norte 40 Norte 0 -- -- 71
2019-12-06 07:00:00 11.7 18 Norte 41 Norte 0 -- -- 78
2019-12-06 06:00:00 11.6 18 Nordeste 32 Nordeste 0 -- -- 77
2019-12-06 05:00:00 11.2 12 Norte 41 Norte 0 -- -- 80
2019-12-06 04:00:00 11.1 14 Norte 33 Nordeste 0 -- -- 80
2019-12-06 03:00:00 10.9 7 Norte 23 Nordeste 0.2 -- -- 82
2019-12-06 02:00:00 10.9 3 Noroeste 23 Nordeste 0 -- -- 85
2019-12-06 01:00:00 10.6 12 Nordeste 22 Nordeste 0.8 -- -- 87
2019-12-06 00:00:00 10.9 5 Oeste 18 Nordeste 0.6 -- -- 83
2019-12-05 23:00:00 10.9 4 Sudeste 22 Sur 0.2 -- -- 81
2019-12-05 22:00:00 10.7 10 Nordeste 21 Nordeste 1.4 -- -- 85
2019-12-05 21:00:00 11.1 3 Norte 22 Noroeste 0.2 -- -- 81
2019-12-05 20:00:00 11.2 6 Norte 26 Noroeste 0.2 -- -- 76
2019-12-05 19:00:00 11.3 14 Norte 37 Noroeste 0 -- -- 79
2019-12-05 18:00:00 12.1 17 Norte 37 Norte 0 -- -- 75
2019-12-05 17:00:00 14.2 10 Noroeste 43 Noroeste 0 -- -- 66
2019-12-05 16:00:00 14.5 26 Noroeste 42 Noroeste 0.2 -- -- 66
2019-12-05 15:00:00 13.8 6 Noroeste 41 Nordeste 0.6 -- -- 77
2019-12-05 14:00:00 13.1 14 Norte 52 Noroeste 0.4 -- -- 79
2019-12-05 13:00:00 12.7 27 Noroeste 53 Norte 1 -- -- 80
2019-12-05 12:00:00 14 19 Noroeste 38 Noroeste 0 -- -- 72
2019-12-05 11:00:00 13.5 17 Noroeste 50 Noroeste 0 -- -- 73
2019-12-05 10:00:00 11.8 20 Norte 51 Noroeste 0 -- -- 72
2019-12-05 09:00:00 11.7 12 Sur 86 Noroeste 0 -- -- 65
2019-12-05 08:00:00 11.3 36 Norte 77 Norte 0 -- -- 67
2019-12-05 07:00:00 11.1 37 Norte 70 Noroeste 0 -- -- 67
2019-12-05 06:00:00 11.6 30 Noroeste 67 Oeste 0 -- -- 77
2019-12-05 05:00:00 11.5 31 Noroeste 53 Noroeste 0 -- -- 84
2019-12-05 04:00:00 12.4 18 Norte 46 Norte 0.6 -- -- 89
2019-12-05 03:00:00 12.1 5 Oeste 25 Sudoeste 1 -- -- 93
2019-12-05 02:00:00 12.5 10 Oeste 19 Oeste 1 -- -- 92
2019-12-05 01:00:00 12.8 15 Noroeste 39 Noroeste 0 -- -- 88
2019-12-05 00:00:00 13.6 33 Norte 48 Noroeste 0 -- -- 78
2019-12-04 23:00:00 13.6 24 Noroeste 38 Noroeste 0 -- -- 76
2019-12-04 22:00:00 13.4 13 Noroeste 33 Noroeste 0 -- -- 75
2019-12-04 21:00:00 13.7 6 Sudoeste 16 Sudoeste 0 -- -- 76
2019-12-04 20:00:00 14 8 Noroeste 19 Noroeste 0 -- -- 74
2019-12-04 19:00:00 14.3 8 Sudoeste 15 Oeste 0 -- -- 71
2019-12-04 18:00:00 15.3 12 Noroeste 33 Noroeste 0 -- -- 64
2019-12-04 17:00:00 17.4 17 Noroeste 32 Noroeste 0 -- -- 55
2019-12-04 16:00:00 17.5 13 Oeste 33 Noroeste 0 -- -- 55
2019-12-04 15:00:00 15.8 8 Noroeste 24 Noroeste 0 -- -- 63
2019-12-04 14:00:00 15.3 10 Sudoeste 23 Sur 0 -- -- 64
2019-12-04 13:00:00 16 13 Sudoeste 37 Oeste 0 -- -- 61
2019-12-04 12:00:00 17.1 15 Oeste 29 Noroeste 0 -- -- 53
2019-12-04 11:00:00 15.8 11 Oeste 30 Norte 0 -- -- 57
2019-12-04 10:00:00 13.1 5 Sudoeste 17 Noroeste 0 -- -- 63
2019-12-04 09:00:00 12.5 5 Oeste 23 Norte 0 -- -- 68
2019-12-04 08:00:00 12 9 Norte 27 Norte 0 -- -- 73
2019-12-04 07:00:00 11.8 10 Noroeste 22 Noroeste 0 -- -- 76
2019-12-04 06:00:00 11.8 6 Este 17 Este 0 -- -- 73
2019-12-04 05:00:00 12 12 Nordeste 32 Norte 0 -- -- 64
2019-12-04 04:00:00 11.4 14 Norte 23 Nordeste 0 -- -- 65
2019-12-04 03:00:00 11.6 13 Nordeste 20 Nordeste 0 -- -- 67
2019-12-04 02:00:00 11.8 3 Este 15 Nordeste 0 -- -- 67
2019-12-04 01:00:00 12 11 Nordeste 22 Nordeste 0 -- -- 67
2019-12-04 00:00:00 12.5 20 Norte 39 Nordeste 0 -- -- 64
2019-12-03 23:00:00 12.2 12 Norte 30 Nordeste 0 -- -- 65
2019-12-03 22:00:00 12.2 11 Norte 35 Norte 0 -- -- 65
2019-12-03 21:00:00 12.2 6 Norte 21 Norte 0 -- -- 62
2019-12-03 20:00:00 12.8 2 Norte 7 Sudeste 0 -- -- 71
2019-12-03 19:00:00 13.5 0 Calma 18 Sur 0 -- -- 77
2019-12-03 18:00:00 15.1 17 Sur 36 Sudoeste 0 -- -- 67
2019-12-03 17:00:00 16.9 12 Noroeste 32 Oeste 0 -- -- 51
2019-12-03 16:00:00 15.7 11 Sudoeste 24 Sur 0 -- -- 62
2019-12-03 15:00:00 17.6 14 Sudoeste 35 Oeste 0 -- -- 52
2019-12-03 14:00:00 17.1 12 Noroeste 40 Oeste 0 -- -- 53
2019-12-03 13:00:00 18.2 15 Noroeste 42 Noroeste 0 -- -- 49
2019-12-03 12:00:00 16.5 23 Norte 44 Nordeste 0 -- -- 49
2019-12-03 11:00:00 15.7 7 Sudoeste 36 Sudoeste 0 -- -- 55
2019-12-03 10:00:00 14 6 Norte 24 Sudoeste 0 -- -- 64
2019-12-03 09:00:00 13.3 9 Sudoeste 22 Este 0 -- -- 70
2019-12-03 08:00:00 12.5 6 Sudoeste 23 Este 0 -- -- 73
2019-12-03 07:00:00 12.5 8 Nordeste 25 Nordeste 0 -- -- 73
2019-12-03 06:00:00 12.1 5 Noroeste 23 Norte 0 -- -- 77
2019-12-03 05:00:00 12.5 7 Norte 17 Nordeste 0 -- -- 80
2019-12-03 04:00:00 12.5 7 Sur 26 Oeste 0 -- -- 76
2019-12-03 03:00:00 12.5 7 Sudoeste 21 Sudoeste 0 -- -- 78
2019-12-03 02:00:00 12.6 6 Sur 15 Noroeste 0 -- -- 78
2019-12-03 01:00:00 12.7 4 Oeste 23 Sudoeste 0 -- -- 75
2019-12-03 00:00:00 12.8 7 Noroeste 22 Oeste 0 -- -- 75
2019-12-02 23:00:00 13 15 Norte 36 Norte 0 -- -- 70
2019-12-02 22:00:00 13.4 18 Noroeste 43 Noroeste 0 -- -- 69
2019-12-02 21:00:00 13.7 18 Norte 40 Noroeste 0 -- -- 71
2019-12-02 20:00:00 13.8 20 Noroeste 33 Noroeste 0 -- -- 68
2019-12-02 19:00:00 14.2 16 Noroeste 35 Noroeste 0 -- -- 64
2019-12-02 18:00:00 15.5 21 Noroeste 43 Noroeste 0 -- -- 60
2019-12-02 17:00:00 17.5 18 Noroeste 33 Noroeste 0 -- -- 54
2019-12-02 16:00:00 17.6 7 Sudoeste 17 Sudoeste 0 -- -- 76
2019-12-02 15:00:00 18.3 11 Oeste 18 Oeste 0 -- -- 71
2019-12-02 14:00:00 17.6 11 Sudoeste 21 Sudoeste 0 -- -- 72
2019-12-02 13:00:00 17.4 11 Oeste 23 Oeste 0 -- -- 74
2019-12-02 12:00:00 17.1 8 Oeste 15 Oeste 0 -- -- 75
2019-12-02 11:00:00 16.8 6 Oeste 17 Sur 0 -- -- 74
2019-12-02 10:00:00 14.8 7 Noroeste 18 Oeste 0 -- -- 81
2019-12-02 09:00:00 13.9 4 Noroeste 35 Nordeste 0 -- -- 74
2019-12-02 08:00:00 13 7 Este 27 Nordeste 0 -- -- 72
2019-12-02 07:00:00 12.8 10 Este 16 Este 0 -- -- 77
2019-12-02 06:00:00 13 6 Este 10 Este 0 -- -- 74
2019-12-02 05:00:00 12.5 8 Nordeste 13 Nordeste 0 -- -- 73
2019-12-02 04:00:00 12.1 3 Oeste 15 Norte 0 -- -- 84
2019-12-02 03:00:00 12.4 5 Noroeste 7 Noroeste 0 -- -- 92
2019-12-02 02:00:00 12.6 4 Sudeste 5 Sudeste 0 -- -- 90
2019-12-02 01:00:00 13.5 0 Calma 12 Sudoeste 0 -- -- 83
2019-12-02 00:00:00 13.7 3 Sudoeste 8 Sur 0 -- -- 85
2019-12-01 23:00:00 14.1 0 Calma 7 Norte 0 -- -- 85
2019-12-01 22:00:00 14 2 Norte 9 Nordeste 0 -- -- 92
2019-12-01 21:00:00 14.5 0 Calma 13 Este 0 -- -- 89
2019-12-01 20:00:00 15.4 0 Calma 10 Nordeste 0 -- -- 84
2019-12-01 19:00:00 16.7 3 Norte 5 Sudoeste 0 -- -- 80
2019-12-01 18:00:00 19 2 Noroeste 14 Oeste 0 -- -- 70
2019-12-01 17:00:00 20.4 7 Oeste 14 Oeste 0 -- -- 68
2019-12-01 16:00:00 21 9 Sudoeste 20 Sur 0 -- -- 66
2019-12-01 15:00:00 23.5 9 Oeste 19 Sur 0 -- -- 56
2019-12-01 14:00:00 23.3 8 Oeste 17 Oeste 0 -- -- 58
2019-12-01 13:00:00 21.7 8 Oeste 14 Sudoeste 0 -- -- 63
2019-12-01 12:00:00 21.9 3 Norte 9 Sudoeste 0 -- -- 60
2019-12-01 11:00:00 20.7 3 Norte 12 Sudoeste 0 -- -- 48
2019-12-01 10:00:00 19 5 Sur 9 Sudoeste 0 -- -- 46
2019-12-01 09:00:00 20.1 0 Calma 4 Noroeste 0 -- -- 27
2019-12-01 08:00:00 20.2 3 Nordeste 6 Nordeste 0 -- -- 27
2019-12-01 07:00:00 20.3 2 Nordeste 6 Nordeste 0 -- -- 26
2019-12-01 06:00:00 20.6 0 Calma 3 Nordeste 0 -- -- 26
2019-12-01 05:00:00 20.9 4 Este 9 Nordeste 0 -- -- 26
2019-12-01 04:00:00 20.7 9 Nordeste 16 Nordeste 0 -- -- 26
2019-12-01 03:00:00 20.6 13 Nordeste 17 Nordeste 0 -- -- 26
2019-12-01 02:00:00 20.2 15 Nordeste 18 Nordeste 0 -- -- 26
2019-12-01 01:00:00 20.5 13 Nordeste 22 Nordeste 0 -- -- 25
2019-12-01 00:00:00 20.6 16 Nordeste 23 Nordeste 0 -- -- 24
2019-11-30 23:00:00 20.8 18 Nordeste 21 Nordeste 0 -- -- 24
2019-11-30 22:00:00 20.7 12 Nordeste 17 Nordeste 0 -- -- 23
2019-11-30 21:00:00 21 9 Nordeste 22 Nordeste 0 -- -- 23
2019-11-30 20:00:00 21.2 13 Nordeste 23 Nordeste 0 -- -- 24
2019-11-30 19:00:00 21.3 12 Nordeste 18 Nordeste 0 -- -- 25
2019-11-30 18:00:00 23.3 3 Este 15 Sur 0 -- -- 29
2019-11-30 17:00:00 25 6 Sudoeste 22 Sur 0 -- -- 30
2019-11-30 16:00:00 25.6 14 Sudoeste 24 Sudoeste 0 -- -- 25
2019-11-30 15:00:00 25.7 13 Sur 25 Sudoeste 0 -- -- 23
2019-11-30 14:00:00 25.8 14 Sur 24 Sur 0 -- -- 22
2019-11-30 13:00:00 25.1 10 Sur 23 Sur 0 -- -- 23
2019-11-30 12:00:00 25.7 12 Sur 22 Sur 0 -- -- 22
2019-11-30 11:00:00 24.4 6 Sudeste 19 Este 0 -- -- 22
2019-11-30 10:00:00 22.4 7 Este 26 Nordeste 0 -- -- 23
2019-11-30 09:00:00 21.6 15 Nordeste 31 Este 0 -- -- 24
2019-11-30 08:00:00 20.8 17 Nordeste 30 Nordeste 0 -- -- 25
2019-11-30 07:00:00 20.7 19 Nordeste 30 Nordeste 0 -- -- 25
2019-11-30 06:00:00 20.6 20 Nordeste 33 Nordeste 0 -- -- 26
2019-11-30 05:00:00 20.6 24 Nordeste 33 Nordeste 0 -- -- 27
2019-11-30 04:00:00 21.1 22 Nordeste 35 Nordeste 0 -- -- 27
2019-11-30 03:00:00 21.6 25 Nordeste 44 Nordeste 0 -- -- 26
2019-11-30 02:00:00 21.7 22 Nordeste 37 Nordeste 0 -- -- 26
2019-11-30 01:00:00 21.8 23 Nordeste 35 Nordeste 0 -- -- 25
2019-11-30 00:00:00 21.8 18 Nordeste 30 Nordeste 0 -- -- 25
2019-11-29 23:00:00 21.7 15 Nordeste 28 Nordeste 0 -- -- 27
2019-11-29 22:00:00 21.6 12 Nordeste 23 Nordeste 0 -- -- 27
2019-11-29 21:00:00 21.5 10 Nordeste 20 Este 0 -- -- 27
2019-11-29 20:00:00 21.3 9 Nordeste 14 Nordeste 0 -- -- 28
2019-11-29 19:00:00 21.8 6 Nordeste 20 Este 0 -- -- 27
2019-11-29 18:00:00 23.6 5 Sudeste 17 Sudeste 0 -- -- 25
2019-11-29 17:00:00 24.9 7 Este 18 Sudeste 0 -- -- 23
2019-11-29 16:00:00 25.5 8 Sudeste 24 Sur 0 -- -- 23
2019-11-29 15:00:00 25.7 15 Sur 28 Sudoeste 0 -- -- 23
2019-11-29 14:00:00 25.1 12 Sudeste 33 Este 0 -- -- 24
2019-11-29 13:00:00 25.1 8 Sudoeste 30 Este 0 -- -- 25
2019-11-29 12:00:00 23.9 12 Sudeste 30 Este 0 -- -- 27
2019-11-29 11:00:00 22.9 14 Este 37 Este 0 -- -- 28
2019-11-29 10:00:00 21.2 14 Nordeste 40 Nordeste 0 -- -- 31
2019-11-29 09:00:00 20.1 17 Nordeste 40 Nordeste 0 -- -- 33
2019-11-29 08:00:00 19.4 25 Nordeste 41 Nordeste 0 -- -- 35
2019-11-29 07:00:00 19.7 26 Nordeste 43 Nordeste 0 -- -- 34
2019-11-29 06:00:00 19.9 27 Nordeste 42 Nordeste 0 -- -- 34
2019-11-29 05:00:00 20.1 28 Nordeste 43 Nordeste 0 -- -- 34
2019-11-29 04:00:00 20.2 26 Nordeste 45 Nordeste 0 -- -- 34
2019-11-29 03:00:00 20.4 28 Nordeste 45 Nordeste 0 -- -- 34
2019-11-29 02:00:00 20.7 22 Nordeste 38 Nordeste 0 -- -- 34
2019-11-29 01:00:00 20.6 14 Nordeste 26 Nordeste 0 -- -- 33
2019-11-29 00:00:00 20.8 15 Nordeste 29 Nordeste 0 -- -- 33
2019-11-28 23:00:00 20.4 16 Nordeste 27 Nordeste 0 -- -- 34
2019-11-28 22:00:00 20.3 14 Nordeste 21 Nordeste 0 -- -- 34
2019-11-28 21:00:00 20.3 13 Nordeste 23 Nordeste 0 -- -- 35
2019-11-28 20:00:00 20.1 15 Nordeste 22 Nordeste 0 -- -- 36
2019-11-28 19:00:00 20 13 Nordeste 20 Nordeste 0 -- -- 37
2019-11-28 18:00:00 20.3 12 Nordeste 27 Nordeste 0 -- -- 35
2019-11-28 17:00:00 20.9 16 Nordeste 27 Nordeste 0 -- -- 35
2019-11-28 16:00:00 21.5 8 Norte 27 Sudeste 0 -- -- 35
2019-11-28 15:00:00 22.5 9 Nordeste 27 Nordeste 0 -- -- 34
2019-11-28 14:00:00 21.9 5 Nordeste 20 Sudoeste 0 -- -- 42
2019-11-28 13:00:00 21.8 8 Este 22 Este 0 -- -- 39
2019-11-28 12:00:00 21.3 8 Nordeste 19 Sudeste 0 -- -- 44
2019-11-28 11:00:00 21 8 Este 21 Nordeste 0 -- -- 40
2019-11-28 10:00:00 19 11 Nordeste 26 Nordeste 0 -- -- 43
2019-11-28 09:00:00 16.8 12 Norte 21 Nordeste 0 -- -- 48
2019-11-28 08:00:00 15.2 8 Nordeste 12 Nordeste 0 -- -- 54
2019-11-28 07:00:00 15.6 4 Nordeste 12 Nordeste 0 -- -- 51
2019-11-28 06:00:00 15.1 5 Nordeste 9 Norte 0 -- -- 53
2019-11-28 05:00:00 15.1 0 Calma 9 Nordeste 0 -- -- 59
2019-11-28 04:00:00 15.9 7 Sur 9 Sur 0 -- -- 62
2019-11-28 03:00:00 16.6 4 Nordeste 15 Nordeste 0 -- -- 51
2019-11-28 02:00:00 16.3 6 Nordeste 14 Nordeste 0 -- -- 55
2019-11-28 01:00:00 16.5 4 Este 11 Nordeste 0 -- -- 53
2019-11-28 00:00:00 15.8 6 Nordeste 10 Nordeste 0 -- -- 59
2019-11-27 23:00:00 16.2 0 Calma 4 Nordeste 0 -- -- 67
2019-11-27 22:00:00 16.1 0 Calma 3 Nordeste 0 -- -- 74
2019-11-27 21:00:00 16.5 2 Sudoeste 12 Norte 0 -- -- 71
2019-11-27 20:00:00 16.6 6 Nordeste 12 Nordeste 0 -- -- 63
2019-11-27 19:00:00 17.3 3 Norte 8 Norte 0 -- -- 74
2019-11-27 18:00:00 19 0 Calma 12 Oeste 0 -- -- 74
2019-11-27 17:00:00 20.6 7 Oeste 17 Oeste 0 -- -- 68
2019-11-27 16:00:00 22.3 10 Oeste 18 Sudoeste 0 -- -- 63
2019-11-27 15:00:00 21.7 12 Oeste 18 Oeste 0 -- -- 66
2019-11-27 14:00:00 21.2 8 Oeste 23 Sudoeste 0 -- -- 68
2019-11-27 13:00:00 20.1 13 Sudoeste 23 Sudoeste 0 -- -- 71
2019-11-27 05:00:00 15.3 5 Sudeste 14 Nordeste 0 -- -- 67
2019-11-27 04:00:00 16.1 8 Nordeste 12 Nordeste 0 -- -- 56
2019-11-27 03:00:00 16.2 5 Nordeste 10 Nordeste 0 -- -- 57
2019-11-27 02:00:00 16 2 Este 5 Este 0 -- -- 64
2019-11-27 01:00:00 16 4 Nordeste 11 Nordeste 0 -- -- 68
2019-11-27 00:00:00 16.9 3 Norte 15 Este 0 -- -- 59
2019-11-26 23:00:00 17.6 9 Nordeste 19 Este 0 -- -- 52
2019-11-26 22:00:00 16.6 8 Nordeste 13 Nordeste 0 -- -- 59
2019-11-26 21:00:00 16.3 0 Calma 7 Nordeste 0 -- -- 84
2019-11-26 20:00:00 16.5 3 Norte 11 Sudeste 0 -- -- 83
2019-11-26 19:00:00 16.3 4 Este 7 Sudeste 0 -- -- 87
2019-11-26 18:00:00 18.1 0 Calma 11 Noroeste 0 -- -- 79
2019-11-26 17:00:00 18.9 5 Oeste 16 Norte 0 -- -- 78
2019-11-26 16:00:00 19.6 7 Noroeste 21 Sur 0 -- -- 75
2019-11-26 15:00:00 19.6 9 Sudoeste 16 Noroeste 0 -- -- 75
2019-11-26 14:00:00 20.1 5 Oeste 16 Oeste 0 -- -- 75
2019-11-26 13:00:00 18.9 5 Sudeste 15 Sur 0 -- -- 77
2019-11-26 12:00:00 17.6 7 Oeste 15 Oeste 0 -- -- 81
2019-11-26 11:00:00 16.8 2 Oeste 11 Sudoeste 0 -- -- 83
2019-11-26 10:00:00 15 5 Sur 10 Sur 0 -- -- 86
2019-11-26 09:00:00 14.4 3 Este 12 Este 0 -- -- 81
2019-11-26 08:00:00 12.5 2 Norte 7 Sur 0 -- -- 92
2019-11-26 07:00:00 13.2 6 Este 11 Este 0 -- -- 85
2019-11-26 06:00:00 15.2 4 Este 14 Nordeste 0 -- -- 70
2019-11-26 05:00:00 15 6 Nordeste 13 Nordeste 0 -- -- 67
2019-11-26 04:00:00 15 0 Calma 4 Sudoeste 0 -- -- 67
2019-11-26 03:00:00 14.4 3 Nordeste 13 Norte 0 -- -- 75
2019-11-26 02:00:00 15.4 9 Nordeste 14 Nordeste 0 -- -- 66
2019-11-26 01:00:00 13.3 2 Nordeste 5 Nordeste 0 -- -- 87
2019-11-26 00:00:00 13.1 0 Calma 5 Este 0 -- -- 90
2019-11-25 23:00:00 13.1 5 Sudeste 8 Este 0 -- -- 91
2019-11-25 22:00:00 13.2 3 Norte 9 Nordeste 0 -- -- 90
2019-11-25 21:00:00 13.9 5 Oeste 10 Oeste 0 -- -- 89
2019-11-25 20:00:00 14.3 6 Oeste 9 Oeste 0 -- -- 89
2019-11-25 19:00:00 14.3 3 Sudoeste 9 Sudoeste 0 -- -- 88
2019-11-25 18:00:00 14.7 7 Sudoeste 15 Sur 0 -- -- 83
2019-11-25 17:00:00 16.2 3 Sudoeste 14 Sudoeste 0 -- -- 78
2019-11-25 16:00:00 16.5 5 Sudoeste 19 Oeste 0 -- -- 77
2019-11-25 15:00:00 17 8 Oeste 24 Oeste 0 -- -- 76
2019-11-25 14:00:00 19 9 Oeste 20 Oeste 0 -- -- 69
2019-11-25 13:00:00 17.9 9 Oeste 15 Oeste 0 -- -- 75
2019-11-25 12:00:00 16 6 Oeste 13 Sudoeste 0 -- -- 82
2019-11-25 11:00:00 15.1 3 Oeste 6 Oeste 0 -- -- 89
2019-11-25 10:00:00 12.7 0 Calma 6 Sur 0 -- -- 97
2019-11-25 09:00:00 11.9 4 Sur 6 Sudeste 0 -- -- 96
2019-11-25 08:00:00 11.4 7 Sur 9 Sur 0 -- -- 95
2019-11-25 07:00:00 11.1 3 Norte 8 Norte 0.2 -- -- 95
2019-11-25 06:00:00 11.6 0 Calma 6 Nordeste 0 -- -- 94
2019-11-25 05:00:00 12 0 Calma 2 Sur 0 -- -- 95
2019-11-25 04:00:00 12.1 0 Calma 8 Este 0 -- -- 94
2019-11-25 03:00:00 12.3 4 Sur 12 Norte 0 -- -- 94
2019-11-25 02:00:00 12.9 6 Noroeste 15 Noroeste 0 -- -- 95
2019-11-25 01:00:00 12.8 9 Noroeste 16 Noroeste 0 -- -- 95
2019-11-25 00:00:00 12.8 6 Noroeste 10 Sudoeste 0 -- -- 95
2019-11-24 23:00:00 13.1 3 Nordeste 8 Noroeste 0 -- -- 95
2019-11-24 22:00:00 13.3 0 Calma 9 Nordeste 0 -- -- 95
2019-11-24 21:00:00 13.4 6 Nordeste 10 Este 0 -- -- 94
2019-11-24 20:00:00 14.6 4 Oeste 7 Oeste 0 -- -- 95
2019-11-24 19:00:00 14.9 0 Calma 4 Oeste 0 -- -- 95
2019-11-24 18:00:00 15.2 0 Calma 8 Sudoeste 0 -- -- 95
2019-11-24 17:00:00 15.3 0 Calma 8 Oeste 0 -- -- 96
2019-11-24 16:00:00 15.1 5 Sur 11 Sur 0 -- -- 95
2019-11-24 15:00:00 15.9 4 Oeste 12 Oeste 0 -- -- 91
2019-11-24 14:00:00 15.9 5 Oeste 21 Oeste 0 -- -- 91
2019-11-24 13:00:00 16.2 7 Oeste 14 Noroeste 0 -- -- 88
2019-11-24 12:00:00 16 6 Sudoeste 13 Sur 0 -- -- 88
2019-11-24 11:00:00 14.9 0 Calma 3 Sur 0 -- -- 86
2019-11-24 10:00:00 13.8 0 Calma 5 Sur 0 -- -- 93
2019-11-24 09:00:00 13.2 3 Sur 5 Sur 0 -- -- 94
2019-11-24 08:00:00 12.7 4 Sudeste 8 Sudeste 0 -- -- 94
2019-11-24 07:00:00 12.7 4 Sudeste 7 Sudeste 0 -- -- 93
2019-11-24 06:00:00 13.1 2 Sudoeste 4 Noroeste 0 -- -- 92
2019-11-24 05:00:00 13.3 3 Sudoeste 4 Sudoeste 0 -- -- 91
2019-11-24 04:00:00 13.5 0 Calma 14 Nordeste 0 -- -- 90
2019-11-24 03:00:00 13.3 12 Nordeste 16 Nordeste 0 -- -- 92
2019-11-24 02:00:00 13.4 10 Este 13 Este 0 -- -- 88
2019-11-24 01:00:00 13.9 0 Calma 5 Noroeste 0 -- -- 91
2019-11-24 00:00:00 14 3 Sur 15 Nordeste 0 -- -- 91
2019-11-23 23:00:00 14.3 14 Este 18 Este 0 -- -- 92
2019-11-23 22:00:00 14.3 9 Nordeste 15 Nordeste 0 -- -- 89
2019-11-23 21:00:00 14.8 3 Sudoeste 11 Sudoeste 0 -- -- 91
2019-11-23 20:00:00 15.9 5 Oeste 12 Sudoeste 0 -- -- 91
2019-11-23 19:00:00 16.3 5 Oeste 14 Sur 0 -- -- 89
2019-11-23 18:00:00 17.1 7 Sudoeste 14 Oeste 0 -- -- 84
2019-11-23 17:00:00 18.8 3 Norte 15 Oeste 0 -- -- 78
2019-11-23 16:00:00 16.8 6 Sudoeste 13 Sudoeste 0 -- -- 87
2019-11-23 15:00:00 17.2 4 Noroeste 18 Oeste 0 -- -- 85
2019-11-23 14:00:00 17 5 Sudoeste 19 Sur 0 -- -- 87
2019-11-23 13:00:00 17.6 9 Sudoeste 17 Sur 0 -- -- 85
2019-11-23 12:00:00 18.4 6 Oeste 13 Oeste 0 -- -- 82
2019-11-23 11:00:00 18.4 9 Sur 15 Sudoeste 0 -- -- 81
2019-11-23 10:00:00 16.2 4 Oeste 21 Noroeste 0 -- -- 87
2019-11-23 09:00:00 15.5 6 Sur 9 Sur 0 -- -- 92
2019-11-23 08:00:00 14.6 3 Norte 8 Oeste 0 -- -- 93
2019-11-23 07:00:00 14.5 3 Sur 10 Nordeste 0 -- -- 93
2019-11-23 06:00:00 14.5 5 Nordeste 22 Norte 0 -- -- 89
2019-11-23 05:00:00 13.8 7 Norte 15 Norte 0 -- -- 93
2019-11-23 04:00:00 14.4 3 Norte 15 Norte 0 -- -- 90
2019-11-23 03:00:00 14.6 4 Sudeste 12 Sur 0 -- -- 92
2019-11-23 02:00:00 14.4 3 Este 8 Norte 0 -- -- 91
2019-11-23 01:00:00 15.7 5 Norte 19 Norte 0 -- -- 84
2019-11-23 00:00:00 14.4 4 Norte 9 Norte 0 -- -- 95
2019-11-22 23:00:00 14.9 0 Calma 8 Oeste 0 -- -- 94
2019-11-22 22:00:00 14.8 0 Calma 10 Este 0 -- -- 94
2019-11-22 21:00:00 15.5 0 Calma 5 Oeste 0 -- -- 92
2019-11-22 20:00:00 16 2 Oeste 8 Sudoeste 0 -- -- 91
2019-11-22 19:00:00 16.2 4 Sudoeste 10 Sudoeste 0 -- -- 90
2019-11-22 18:00:00 16.8 4 Sudoeste 17 Sudoeste 0 -- -- 86
2019-11-22 17:00:00 18.1 8 Oeste 18 Oeste 0 -- -- 81
2019-11-22 16:00:00 18.8 9 Oeste 23 Sudoeste 0 -- -- 79
2019-11-22 15:00:00 18.9 9 Sudoeste 19 Oeste 0 -- -- 79
2019-11-22 14:00:00 19.3 8 Oeste 28 Sudoeste 0 -- -- 76
2019-11-22 13:00:00 19.3 9 Sudoeste 22 Sudoeste 0 -- -- 76
2019-11-22 12:00:00 19.3 5 Oeste 14 Oeste 0 -- -- 77
2019-11-22 11:00:00 17.9 5 Sur 14 Sudeste 0 -- -- 81
2019-11-22 10:00:00 16.2 5 Sudeste 10 Sudeste 0 -- -- 81
2019-11-22 09:00:00 14.9 5 Sur 6 Sur 0 -- -- 84
2019-11-22 08:00:00 14.3 5 Nordeste 10 Este 0 -- -- 86
2019-11-22 07:00:00 14.6 8 Sudeste 12 Este 0 -- -- 86
2019-11-22 06:00:00 14.9 9 Este 11 Este 0 -- -- 83
2019-11-22 05:00:00 14.1 4 Nordeste 7 Nordeste 0 -- -- 90
2019-11-22 04:00:00 14 2 Norte 6 Noroeste 0 -- -- 93
2019-11-22 03:00:00 14.1 3 Noroeste 8 Noroeste 0 -- -- 93
2019-11-22 02:00:00 14.4 4 Noroeste 9 Sudoeste 0 -- -- 94
2019-11-22 01:00:00 14.4 5 Noroeste 12 Noroeste 0 -- -- 94
2019-11-22 00:00:00 14 6 Noroeste 10 Noroeste 0 -- -- 93
2019-11-21 23:00:00 13.8 0 Calma 7 Sur 0 -- -- 92
2019-11-21 22:00:00 13.7 3 Sur 5 Noroeste 0 -- -- 91
2019-11-21 21:00:00 14 0 Calma 5 Norte 0 -- -- 89
2019-11-21 20:00:00 14.4 0 Calma 9 Sur 0 -- -- 87
2019-11-21 19:00:00 15.3 2 Oeste 14 Oeste 0 -- -- 83
2019-11-21 18:00:00 16.7 8 Sudoeste 23 Oeste 0 -- -- 80
2019-11-21 17:00:00 17.8 10 Sudoeste 25 Oeste 0 -- -- 74
2019-11-21 16:00:00 19.8 13 Sudoeste 27 Sudoeste 0 -- -- 66
2019-11-21 15:00:00 20.2 13 Oeste 29 Oeste 0 -- -- 66
2019-11-21 14:00:00 21.1 17 Oeste 32 Sudoeste 0 -- -- 59
2019-11-21 13:00:00 21 15 Oeste 25 Oeste 0 -- -- 57
2019-11-21 12:00:00 19.6 13 Sudoeste 21 Sudoeste 0 -- -- 69
2019-11-21 11:00:00 18.7 9 Oeste 16 Oeste 0 -- -- 69
2019-11-21 10:00:00 16.1 5 Oeste 13 Oeste 0 -- -- 80
2019-11-21 09:00:00 14.8 7 Oeste 24 Noroeste 0 -- -- 85
2019-11-21 08:00:00 13.9 10 Noroeste 17 Sudoeste 0 -- -- 88
2019-11-21 07:00:00 -- -- -- -- -- -- -- -- --
2019-11-21 06:00:00 -- -- -- -- -- -- -- -- --
2019-11-21 05:00:00 -- -- -- -- -- -- -- -- --
2019-11-21 04:00:00 -- -- -- -- -- -- -- -- --
2019-11-21 03:00:00 -- -- -- -- -- -- -- -- --
2019-11-21 02:00:00 -- -- -- -- -- -- -- -- --
2019-11-21 01:00:00 -- -- -- -- -- -- -- -- --
2019-11-21 00:00:00 -- -- -- -- -- -- -- -- --
2019-11-20 23:00:00 -- -- -- -- -- -- -- -- --
2019-11-20 22:00:00 -- -- -- -- -- -- -- -- --
2019-11-20 21:00:00 -- -- -- -- -- -- -- -- --
2019-11-20 20:00:00 -- -- -- -- -- -- -- -- --
2019-11-20 19:00:00 15.8 2 Sudoeste 10 Sudoeste 0 -- -- 80
2019-11-20 18:00:00 17.3 7 Sudoeste 19 Oeste 0 -- -- 73
2019-11-20 17:00:00 19.4 14 Oeste 24 Oeste 0 -- -- 65
2019-11-20 16:00:00 21.1 14 Oeste 29 Oeste 0 -- -- 59
2019-11-20 15:00:00 20.9 14 Oeste 26 Oeste 0 -- -- 61
2019-11-20 14:00:00 20.5 13 Oeste 22 Oeste 0 -- -- 64
2019-11-20 13:00:00 18.3 10 Oeste 22 Oeste 0 -- -- 72
2019-11-20 12:00:00 18.6 10 Sudoeste 18 Oeste 0 -- -- 68
2019-11-20 11:00:00 16.7 6 Sudoeste 12 Sudoeste 0 -- -- 73
2019-11-20 10:00:00 13.6 0 Calma 4 Sudoeste 0 -- -- 77
2019-11-20 09:00:00 12.4 3 Sur 6 Sur 0 -- -- 81
2019-11-20 08:00:00 12.3 0 Calma 5 Nordeste 0 -- -- 76
2019-11-20 07:00:00 12.2 0 Calma 5 Sudoeste 0 -- -- 77
2019-11-20 06:00:00 12.3 3 Sudeste 9 Norte 0 -- -- 75
2019-11-20 05:00:00 12.1 3 Norte 9 Norte 0 -- -- 77
2019-11-20 04:00:00 12 3 Noroeste 9 Noroeste 0 -- -- 82
2019-11-20 03:00:00 12.1 3 Nordeste 5 Norte 0 -- -- 82
2019-11-20 02:00:00 12.1 0 Calma 6 Sur 0 -- -- 93
2019-11-20 01:00:00 12.4 0 Calma 10 Oeste 0 -- -- 92
2019-11-20 00:00:00 13.3 3 Oeste 10 Oeste 0 -- -- 93
2019-11-19 23:00:00 13.4 5 Sudoeste 9 Sudoeste 0 -- -- 92
2019-11-19 22:00:00 13.7 3 Oeste 10 Oeste 0 -- -- 92
2019-11-19 21:00:00 13.9 5 Oeste 9 Oeste 0 -- -- 90
2019-11-19 20:00:00 14.1 5 Oeste 11 Sudoeste 0 -- -- 90
2019-11-19 19:00:00 14.4 4 Oeste 16 Sur 0 -- -- 87
2019-11-19 18:00:00 14.9 5 Sudoeste 18 Sudoeste 0 -- -- 85
2019-11-19 17:00:00 15.6 11 Sudoeste 21 Sudoeste 0 -- -- 82
2019-11-19 16:00:00 17 12 Sudoeste 25 Sudoeste 0 -- -- 68
2019-11-19 15:00:00 17.6 9 Sudoeste 24 Sudoeste 0 -- -- 67
2019-11-19 14:00:00 19.4 10 Sudoeste 26 Sudoeste 0 -- -- 58
2019-11-19 13:00:00 18.9 13 Sudoeste 23 Sudoeste 0 -- -- 60
2019-11-19 12:00:00 18.5 9 Sudoeste 18 Sur 0 -- -- 59
2019-11-19 11:00:00 16.9 3 Oeste 8 Sudoeste 0 -- -- 63
2019-11-19 10:00:00 13.8 5 Sudoeste 8 Sur 0 -- -- 71
2019-11-19 09:00:00 12.9 6 Sur 9 Sudeste 0 -- -- 70
2019-11-19 08:00:00 12.2 3 Sur 6 Sur 0 -- -- 72
2019-11-19 07:00:00 11.8 4 Nordeste 11 Nordeste 0 -- -- 75
2019-11-19 06:00:00 11.2 8 Nordeste 10 Nordeste 0 -- -- 79
2019-11-19 05:00:00 11.6 0 Calma 5 Sudoeste 0 -- -- 79
2019-11-19 04:00:00 11.6 5 Sudeste 9 Este 0 -- -- 81
2019-11-19 03:00:00 11.5 5 Este 8 Este 0 -- -- 83
2019-11-19 02:00:00 11.5 4 Nordeste 6 Nordeste 0 -- -- 91
2019-11-19 01:00:00 11.8 0 Calma 3 Norte 0 -- -- 92
2019-11-19 00:00:00 12 0 Calma 4 Oeste 0 -- -- 90
2019-11-18 23:00:00 12.3 0 Calma 5 Noroeste 0 -- -- 89
2019-11-18 22:00:00 12.6 0 Calma 4 Este 0 -- -- 86
2019-11-18 21:00:00 13.2 0 Calma 9 Este 0 -- -- 80
2019-11-18 20:00:00 14.1 0 Calma 12 Sur 0 -- -- 81
2019-11-18 19:00:00 14.7 6 Sur 17 Sudoeste 0 -- -- 78
2019-11-18 18:00:00 16.9 9 Oeste 21 Oeste 0 -- -- 68
2019-11-18 17:00:00 17.1 10 Oeste 24 Oeste 0 -- -- 67
2019-11-18 16:00:00 19.4 12 Oeste 30 Oeste 0 -- -- 60
2019-11-18 15:00:00 20.6 13 Oeste 32 Sudoeste 0 -- -- 54
2019-11-18 14:00:00 19.9 13 Oeste 23 Oeste 0 -- -- 56
2019-11-18 13:00:00 19.5 12 Oeste 22 Oeste 0 -- -- 57
2019-11-18 12:00:00 18.4 9 Oeste 14 Oeste 0 -- -- 60
2019-11-18 11:00:00 16.4 3 Oeste 12 Sur 0 -- -- 62
2019-11-18 10:00:00 14 2 Norte 11 Este 0 -- -- 57
2019-11-18 09:00:00 13.2 5 Este 12 Este 0 -- -- 54
2019-11-18 08:00:00 12.8 0 Calma 5 Nordeste 0 -- -- 43
2019-11-18 07:00:00 12.9 2 Este 7 Este 0 -- -- 44
2019-11-18 06:00:00 13.4 2 Nordeste 6 Nordeste 0 -- -- 41
2019-11-18 05:00:00 14 3 Nordeste 7 Nordeste 0 -- -- 40
2019-11-18 04:00:00 13.6 5 Nordeste 12 Nordeste 0 -- -- 41
2019-11-18 03:00:00 13.6 9 Nordeste 12 Nordeste 0 -- -- 42
2019-11-18 02:00:00 13.5 11 Nordeste 15 Nordeste 0 -- -- 44
2019-11-18 01:00:00 12.2 6 Este 9 Este 0 -- -- 69
2019-11-18 00:00:00 11.5 5 Nordeste 17 Nordeste 0 -- -- 80
2019-11-17 23:00:00 11.9 2 Nordeste 5 Nordeste 0 -- -- 85
2019-11-17 22:00:00 12.4 0 Calma 6 Oeste 0 -- -- 85
2019-11-17 21:00:00 13.2 3 Oeste 11 Sudoeste 0 -- -- 81
2019-11-17 20:00:00 13.6 4 Oeste 9 Oeste 0 -- -- 79
2019-11-17 19:00:00 13.9 6 Oeste 15 Oeste 0 -- -- 78
2019-11-17 18:00:00 14.7 6 Oeste 16 Oeste 0 -- -- 74
2019-11-17 17:00:00 15.4 8 Oeste 21 Oeste 0 -- -- 71
2019-11-17 16:00:00 16.5 9 Oeste 23 Oeste 0 -- -- 68
2019-11-17 15:00:00 17.5 12 Oeste 22 Oeste 0 -- -- 66
2019-11-17 14:00:00 17.8 12 Oeste 24 Oeste 0 -- -- 64
2019-11-17 13:00:00 15.3 9 Sudoeste 22 Oeste 0 -- -- 69
2019-11-17 12:00:00 16.2 9 Oeste 22 Oeste 0 -- -- 70
2019-11-17 11:00:00 14.9 4 Oeste 10 Oeste 0 -- -- 72
2019-11-17 10:00:00 13.6 7 Oeste 14 Oeste 0 -- -- 83
2019-11-17 09:00:00 12 4 Sudeste 10 Sur 0 -- -- 85
2019-11-17 08:00:00 11.9 5 Sur 12 Sudeste 0 -- -- 80
2019-11-17 07:00:00 11.4 3 Norte 10 Nordeste 0 -- -- 85
2019-11-17 06:00:00 11.8 7 Nordeste 11 Nordeste 0 -- -- 87
2019-11-17 05:00:00 11.5 2 Nordeste 4 Nordeste 0 -- -- 90
2019-11-17 04:00:00 11.5 3 Nordeste 5 Oeste 0 -- -- 90
2019-11-17 03:00:00 11.7 3 Oeste 6 Sudoeste 0 -- -- 88
2019-11-17 02:00:00 11.9 0 Calma 3 Nordeste 0 -- -- 87
2019-11-17 01:00:00 12 0 Calma 6 Sudoeste 0 -- -- 85
2019-11-17 00:00:00 12 2 Sudoeste 8 Oeste 0 -- -- 84
2019-11-16 23:00:00 12.1 4 Sudoeste 8 Sudoeste 0 -- -- 83
2019-11-16 22:00:00 12.3 6 Sudoeste 10 Sudoeste 0 -- -- 82
2019-11-16 21:00:00 13 3 Oeste 9 Sur 0 -- -- 78
2019-11-16 20:00:00 14.1 4 Sudoeste 14 Oeste 0 -- -- 76
2019-11-16 19:00:00 14.5 6 Sudoeste 15 Sudoeste 0 -- -- 70
2019-11-16 18:00:00 15.5 10 Sudoeste 20 Sudoeste 0 -- -- 68
2019-11-16 17:00:00 17.9 11 Oeste 24 Oeste 0 -- -- 60
2019-11-16 16:00:00 18.8 13 Oeste 24 Oeste 0 -- -- 58
2019-11-16 15:00:00 16.5 12 Sudoeste 33 Sudoeste 0 -- -- 66
2019-11-16 14:00:00 19 9 Oeste 25 Oeste 0 -- -- 58
2019-11-16 13:00:00 18.4 11 Oeste 29 Oeste 0 -- -- 56
2019-11-16 12:00:00 16.9 8 Oeste 17 Sudoeste 0 -- -- 67
2019-11-16 11:00:00 15.4 6 Sudoeste 13 Sudoeste 0 -- -- 74
2019-11-16 10:00:00 13.1 4 Sudoeste 13 Sudoeste 0 -- -- 81
2019-11-16 09:00:00 12 7 Sur 13 Sur 0 -- -- 86
2019-11-16 08:00:00 11.3 7 Sudeste 11 Sudeste 0 -- -- 88
2019-11-16 07:00:00 11.2 3 Sudeste 12 Nordeste 0 -- -- 85
2019-11-16 06:00:00 11 7 Este 10 Este 0 -- -- 86
2019-11-16 05:00:00 11.1 6 Sudeste 11 Este 0 -- -- 83
2019-11-16 04:00:00 11.4 8 Este 12 Sudeste 0 -- -- 83
2019-11-16 03:00:00 11.4 5 Este 9 Nordeste 0 -- -- 80
2019-11-16 02:00:00 11.5 5 Sudeste 10 Sudeste 0 -- -- 82
2019-11-16 01:00:00 11.9 7 Sudeste 10 Este 0 -- -- 77
2019-11-16 00:00:00 12.4 0 Calma 10 Nordeste 0 -- -- 71
2019-11-15 23:00:00 12.5 4 Este 10 Este 0 -- -- 69
2019-11-15 22:00:00 12.7 4 Sur 10 Sudeste 0 -- -- 69
2019-11-15 21:00:00 12.8 5 Sur 9 Sudeste 0 -- -- 68
2019-11-15 20:00:00 12.8 5 Sur 12 Sur 0 -- -- 68
2019-11-15 19:00:00 13.5 6 Sur 16 Sudoeste 0 -- -- 65
2019-11-15 18:00:00 14.7 11 Nordeste 23 Nordeste 0 -- -- 61
2019-11-15 17:00:00 15.9 10 Noroeste 53 Nordeste 0 -- -- 58
2019-11-15 16:00:00 17.5 9 Norte 37 Norte 0 -- -- 57
2019-11-15 15:00:00 17 13 Noroeste 35 Norte 0 -- -- 61
2019-11-15 14:00:00 16.6 12 Oeste 24 Noroeste 0 -- -- 75
2019-11-15 13:00:00 14.9 6 Sudoeste 10 Sur 0 -- -- 91
2019-11-15 12:00:00 14.5 5 Oeste 11 Sudoeste 0.6 -- -- 90
2019-11-15 11:00:00 14.6 8 Sur 15 Sur 0 -- -- 86
2019-11-15 10:00:00 15.2 6 Oeste 12 Sudoeste 0 -- -- 81
2019-11-15 09:00:00 13.6 4 Sudoeste 7 Sudoeste 0 -- -- 89
2019-11-15 08:00:00 12.6 0 Calma 6 Nordeste 0 -- -- 91
2019-11-15 07:00:00 12.2 6 Este 10 Sudeste 0 -- -- 92
2019-11-15 06:00:00 12.6 6 Sur 10 Sur 0 -- -- 93
2019-11-15 05:00:00 13 0 Calma 8 Sur 0 -- -- 93
2019-11-15 04:00:00 13 3 Sudoeste 8 Sudoeste 0 -- -- 93
2019-11-15 03:00:00 13.3 0 Calma 8 Sur 0 -- -- 93
2019-11-15 02:00:00 13 0 Calma 4 Noroeste 0 -- -- 92
2019-11-15 01:00:00 13.3 3 Noroeste 5 Noroeste 0 -- -- 92
2019-11-15 00:00:00 13.6 0 Calma 10 Sudoeste 0 -- -- 91
2019-11-14 23:00:00 13.5 6 Sur 10 Sur 0 -- -- 90
2019-11-14 22:00:00 14.1 0 Calma 4 Este 0 -- -- 88
2019-11-14 21:00:00 14.8 2 Noroeste 8 Sudoeste 0 -- -- 85
2019-11-14 20:00:00 14.9 2 Sudoeste 6 Oeste 0 -- -- 81
2019-11-14 19:00:00 15.4 4 Sudoeste 10 Sur 0 -- -- 79
2019-11-14 18:00:00 16.9 4 Oeste 10 Noroeste 0 -- -- 75
2019-11-14 17:00:00 16.8 5 Oeste 16 Oeste 0 -- -- 74
2019-11-14 16:00:00 17.8 9 Oeste 25 Oeste 0 -- -- 71
2019-11-14 15:00:00 19.1 10 Oeste 19 Noroeste 0 -- -- 66
2019-11-14 14:00:00 19.8 10 Oeste 22 Oeste 0 -- -- 61
2019-11-14 13:00:00 19.7 9 Sudoeste 21 Oeste 0 -- -- 60
2019-11-14 12:00:00 19.1 8 Oeste 21 Oeste 0 -- -- 62
2019-11-14 11:00:00 17.3 5 Sudoeste 9 Sudoeste 0 -- -- 60
2019-11-14 10:00:00 15.3 4 Oeste 7 Sudoeste 0 -- -- 71
2019-11-14 09:00:00 14.2 6 Nordeste 15 Este 0 -- -- 65
2019-11-14 08:00:00 13.4 8 Este 9 Sudeste 0 -- -- 72
2019-11-14 07:00:00 13.7 0 Calma 8 Sur 0 -- -- 63
2019-11-14 06:00:00 13.9 3 Este 7 Nordeste 0 -- -- 60
2019-11-14 05:00:00 13.8 2 Este 13 Este 0 -- -- 69
2019-11-14 04:00:00 13.3 8 Este 13 Nordeste 0 -- -- 75
2019-11-14 03:00:00 13 7 Oeste 11 Noroeste 0 -- -- 88
2019-11-14 02:00:00 13.3 4 Nordeste 17 Este 0 -- -- 80
2019-11-14 01:00:00 13.5 3 Nordeste 10 Nordeste 0 -- -- 79
2019-11-14 00:00:00 13.3 4 Noroeste 8 Norte 0 -- -- 89
2019-11-13 23:00:00 13.8 6 Nordeste 17 Este 0 -- -- 87
2019-11-13 22:00:00 14.4 7 Nordeste 18 Este 0 -- -- 85
2019-11-13 21:00:00 14.4 5 Noroeste 11 Oeste 0 -- -- 85
2019-11-13 20:00:00 15 5 Noroeste 8 Noroeste 0 -- -- 82
2019-11-13 19:00:00 15.9 6 Este 13 Nordeste 0 -- -- 76
2019-11-13 18:00:00 17.3 4 Sudoeste 14 Oeste 0 -- -- 70
2019-11-13 17:00:00 19.5 9 Oeste 22 Oeste 0 -- -- 59
2019-11-13 16:00:00 19.9 12 Sudoeste 23 Sudoeste 0 -- -- 60
2019-11-13 15:00:00 21.2 10 Sudoeste 21 Oeste 0 -- -- 57
2019-11-13 14:00:00 21.7 13 Oeste 22 Sudoeste 0 -- -- 59
2019-11-13 13:00:00 20.9 9 Oeste 20 Sur 0 -- -- 64
2019-11-13 12:00:00 20.8 6 Oeste 12 Sudoeste 0 -- -- 62
2019-11-13 11:00:00 19.1 5 Oeste 8 Sudoeste 0 -- -- 64
2019-11-13 10:00:00 16.9 0 Calma 11 Sur 0 -- -- 64
2019-11-13 09:00:00 15.3 0 Calma 8 Este 0 -- -- 69
2019-11-13 08:00:00 15 5 Este 10 Nordeste 0 -- -- 64
2019-11-13 07:00:00 15.1 2 Nordeste 7 Nordeste 0 -- -- 66
2019-11-13 06:00:00 14.9 3 Oeste 10 Sudoeste 0 -- -- 68
2019-11-13 05:00:00 15.3 4 Sur 7 Sur 0 -- -- 68
2019-11-13 04:00:00 16.4 3 Sur 10 Este 0 -- -- 61
2019-11-13 03:00:00 16.8 4 Sudeste 10 Este 0 -- -- 50
2019-11-13 02:00:00 17 3 Sudoeste 10 Sudoeste 0 -- -- 51
2019-11-13 01:00:00 16.2 4 Nordeste 14 Sur 0 -- -- 58
2019-11-13 00:00:00 16 7 Sur 14 Sur 0 -- -- 69
2019-11-12 23:00:00 16.9 5 Nordeste 18 Este 0 -- -- 59
2019-11-12 22:00:00 15.8 3 Nordeste 17 Nordeste 0 -- -- 76
2019-11-12 21:00:00 15.5 2 Sudoeste 14 Nordeste 0 -- -- 84
2019-11-12 20:00:00 15.8 2 Nordeste 9 Este 0 -- -- 84
2019-11-12 19:00:00 16.9 2 Noroeste 13 Oeste 0 -- -- 79
2019-11-12 18:00:00 19.4 7 Oeste 19 Oeste 0 -- -- 68
2019-11-12 17:00:00 21.5 11 Oeste 20 Oeste 0 -- -- 62
2019-11-12 16:00:00 21.6 9 Oeste 20 Oeste 0 -- -- 62
2019-11-12 15:00:00 21.8 10 Oeste 20 Oeste 0 -- -- 62
2019-11-12 14:00:00 21.9 9 Oeste 19 Oeste 0 -- -- 64
2019-11-12 13:00:00 20.8 6 Oeste 17 Oeste 0 -- -- 66
2019-11-12 12:00:00 19.3 5 Oeste 13 Sudoeste 0 -- -- 71
2019-11-12 11:00:00 17.8 2 Oeste 14 Sur 0 -- -- 76
2019-11-12 10:00:00 15.5 5 Sur 10 Sur 0 -- -- 91
2019-11-12 09:00:00 13.7 3 Sur 8 Sur 0 -- -- 93
2019-11-12 08:00:00 13.2 0 Calma 10 Sudeste 0 -- -- 94
2019-11-12 07:00:00 13.3 8 Sur 13 Sur 0 -- -- 94
2019-11-12 06:00:00 13.6 0 Calma 10 Sudoeste 0 -- -- 94
2019-11-12 05:00:00 13.8 6 Sudoeste 10 Sudoeste 0 -- -- 93
2019-11-12 04:00:00 13.7 6 Este 14 Este 0 -- -- 88
2019-11-12 03:00:00 13.8 4 Sur 10 Sudoeste 0 -- -- 92
2019-11-12 02:00:00 14.3 8 Sudeste 15 Este 0 -- -- 89
2019-11-12 01:00:00 14.9 5 Nordeste 19 Nordeste 0 -- -- 70
2019-11-12 00:00:00 14.7 4 Sur 13 Oeste 0 -- -- 84